Weather History for Fredericksburg, VA

Change the Weather History Date:

Saturday, November 3, 2012

  Actual Average (KNYG) Record (KNYG)
Temperature  
Mean Temperature 46 °F -  
Max Temperature 55 °F 59 °F 73 °F (2001)
Min Temperature 38 °F 40 °F 30 °F (2006)
Degree Days  
Heating Degree Days 18    
Moisture  
Dew Point 32 °F    
Average Humidity 56    
Maximum Humidity 83    
Minimum Humidity 40    
Precipitation  
Precipitation 0.00 in - - ()
Sea Level Pressure  
Sea Level Pressure 30.03 in    
Wind  
Wind Speed 7 mph (NW)    
Max Wind Speed 15 mph    
Max Gust Speed 32 mph    
Visibility 10 miles    
Events      
Averages and records for this station are not official NWS values.
T = Trace of Precipitation, MM = Missing Value Source: NWS Daily Summary

Daily Weather History Graph

Daily Weather History Graph

Search for Another Location

Airport:

Trip Planner

Search our weather history database for the weather conditions in past years. The results will help you decide how hot, cold, wet, or windy it might be!

Date:

Astronomy

Nov. 03, 2012 Rise Set
Actual Time 7:38 AM EDT 6:07 PM EDT
Civil Twilight 7:11 AM EDT 6:35 PM EDT
Nautical Twilight 6:39 AM EDT 7:06 PM EDT
Astronomical Twilight 6:08 AM EDT 7:37 PM EDT
Moon 9:48 PM EDT (11/3) 11:39 AM EDT (11/3)
Length of Visible Light 11h 24m
Length of Day
10h 29m
Waning Gibbous, 80% of the Moon is Illuminated
Nov 3
Waning Gibbous
Nov 6
Last Quarter
Nov 13
New
Nov 20
First Quarter
Nov 28
Full

Hourly Weather History & Observations

Time (EDT) Temp. Windchill Dew Point Humidity Pressure Visibility Wind Dir Wind Speed Gust Speed Precip Events Conditions
12:15 AM 40.5 °F 35.8 °F 33.6 °F 77% 29.95 in 10.0 mi WNW 6.9 mph - N/A   Scattered Clouds
12:35 AM 38.7 °F - 33.6 °F 82% 29.95 in 10.0 mi Calm Calm - N/A   Scattered Clouds
12:55 AM 40.1 °F - 35.2 °F 83% 29.96 in 10.0 mi Calm Calm - N/A   Overcast
1:15 AM 42.1 °F 39.2 °F 34.9 °F 76% 29.96 in 10.0 mi West 4.6 mph - N/A   Overcast
1:35 AM 43.7 °F 42.1 °F 34.2 °F 69% 29.96 in 10.0 mi West 3.5 mph - N/A   Overcast
1:55 AM 43.9 °F 42.3 °F 34.5 °F 70% 29.96 in 10.0 mi West 3.5 mph - N/A   Overcast
2:15 AM 44.8 °F 43.3 °F 34.0 °F 66% 29.96 in 10.0 mi WSW 3.5 mph - N/A   Overcast
2:35 AM 45.0 °F - 34.7 °F 67% 29.96 in 10.0 mi Calm Calm - N/A   Overcast
3:15 AM 45.5 °F 43.2 °F 33.8 °F 64% 29.97 in 10.0 mi WNW 4.6 mph - N/A   Overcast
3:35 AM 45.7 °F 43.4 °F 34.0 °F 64% 29.97 in 10.0 mi NW 4.6 mph - N/A   Overcast
3:55 AM 45.9 °F 43.6 °F 34.2 °F 64% 29.97 in 10.0 mi NW 4.6 mph - N/A   Overcast
4:15 AM 45.9 °F 43.6 °F 33.8 °F 63% 29.97 in 10.0 mi NW 4.6 mph - N/A   Overcast
4:35 AM 46.4 °F 42.9 °F 33.3 °F 60% 29.97 in 10.0 mi NW 6.9 mph - N/A   Overcast
4:55 AM 46.0 °F 43.1 °F 33.4 °F 61% 29.98 in 10.0 mi NW 5.8 mph - N/A   Overcast
5:15 AM 46.0 °F 42.5 °F 32.2 °F 58% 29.98 in 10.0 mi NNW 6.9 mph - N/A   Mostly Cloudy
5:35 AM 45.9 °F 40.8 °F 32.4 °F 59% 29.99 in 10.0 mi NNW 10.4 mph 16.1 mph N/A   Overcast
5:55 AM 45.7 °F 40.6 °F 32.2 °F 59% 29.99 in 10.0 mi NNW 10.4 mph 19.6 mph N/A   Overcast
6:15 AM 45.7 °F 41.5 °F 32.4 °F 60% 30.00 in 10.0 mi NW 8.1 mph - N/A   Overcast
6:35 AM 45.7 °F 42.0 °F 32.2 °F 59% 30.01 in 10.0 mi NNW 6.9 mph - N/A   Overcast
6:55 AM 45.5 °F 40.3 °F 32.0 °F 59% 30.01 in 10.0 mi NW 10.4 mph - N/A   Overcast
7:15 AM 45.0 °F 39.7 °F 32.0 °F 60% 30.02 in 10.0 mi NW 10.4 mph - N/A   Scattered Clouds
7:35 AM 45.1 °F 40.3 °F 32.0 °F 60% 30.03 in 10.0 mi WNW 9.2 mph - N/A   Clear
7:55 AM 44.4 °F 41.2 °F 32.4 °F 63% 30.04 in 10.0 mi WNW 5.8 mph - N/A   Scattered Clouds
8:15 AM 45.0 °F 41.8 °F 32.4 °F 61% 30.05 in 10.0 mi West 5.8 mph - N/A   Overcast
8:35 AM 45.5 °F 41.8 °F 32.7 °F 61% 30.05 in 10.0 mi WNW 6.9 mph - N/A   Overcast
8:55 AM 45.9 °F 41.2 °F 32.5 °F 60% 30.05 in 10.0 mi WNW 9.2 mph - N/A   Overcast
9:15 AM 47.1 °F - 32.4 °F 57% 30.05 in 10.0 mi WNW 4.6 mph - N/A   Mostly Cloudy
9:35 AM 46.9 °F - 32.0 °F 56% 30.05 in 10.0 mi NW 10.4 mph 16.1 mph N/A   Mostly Cloudy
9:55 AM 47.5 °F - 32.0 °F 55% 30.05 in 10.0 mi WNW 6.9 mph 18.4 mph N/A   Mostly Cloudy
10:15 AM 48.6 °F - 31.1 °F 51% 30.05 in 10.0 mi NW 9.2 mph 17.3 mph N/A   Overcast
10:35 AM 48.9 °F - 30.6 °F 49% 30.05 in 10.0 mi NNW 10.4 mph 24.2 mph N/A   Overcast
10:55 AM 49.8 °F - 30.2 °F 47% 30.05 in 10.0 mi NNW 13.8 mph 26.5 mph N/A   Mostly Cloudy
11:15 AM 49.3 °F - 30.0 °F 48% 30.05 in 10.0 mi NNW 13.8 mph 32.2 mph N/A   Mostly Cloudy
11:35 AM 52.7 °F - 30.9 °F 43% 30.04 in 10.0 mi NW 12.7 mph 23.0 mph N/A   Mostly Cloudy
11:55 AM 51.3 °F - 30.6 °F 45% 30.05 in 10.0 mi NW 11.5 mph 26.5 mph N/A   Scattered Clouds
12:15 PM 53.1 °F - 30.2 °F 42% 30.05 in 10.0 mi WNW 15.0 mph 27.6 mph N/A   Scattered Clouds
12:35 PM 52.2 °F - 30.4 °F 43% 30.05 in 10.0 mi NNW 6.9 mph 18.4 mph N/A   Mostly Cloudy
12:55 PM 52.5 °F - 30.6 °F 43% 30.04 in 10.0 mi WNW 11.5 mph 19.6 mph N/A   Mostly Cloudy
1:15 PM 52.7 °F - 30.6 °F 43% 30.04 in 10.0 mi NW 11.5 mph 21.9 mph N/A   Mostly Cloudy
1:35 PM 54.3 °F - 30.9 °F 41% 30.04 in 10.0 mi NW 12.7 mph 23.0 mph N/A   Mostly Cloudy
1:55 PM 53.2 °F - 31.1 °F 43% 30.03 in 10.0 mi WNW 12.7 mph 18.4 mph N/A   Mostly Cloudy
2:15 PM 54.7 °F - 31.3 °F 41% 30.02 in 10.0 mi WNW 12.7 mph - N/A   Scattered Clouds
2:35 PM 54.7 °F - 31.5 °F 41% 30.02 in 10.0 mi NW 12.7 mph 24.2 mph N/A   Clear
2:55 PM 54.1 °F - 31.3 °F 42% 30.02 in 10.0 mi NW 12.7 mph 18.4 mph N/A   Clear
3:15 PM 53.8 °F - 31.1 °F 42% 30.01 in 10.0 mi NW 15.0 mph 19.6 mph N/A   Clear
3:35 PM 55.2 °F - 31.5 °F 40% 30.02 in 10.0 mi WNW 11.5 mph 18.4 mph N/A   Clear
3:55 PM 55.6 °F - 31.6 °F 40% 30.02 in 10.0 mi NW 10.4 mph - N/A   Scattered Clouds
4:15 PM 54.9 °F - 31.6 °F 41% 30.02 in 10.0 mi North 9.2 mph 17.3 mph N/A   Clear
4:35 PM 54.1 °F - 31.3 °F 42% 30.03 in 10.0 mi NNW 10.4 mph 18.4 mph N/A   Clear
4:55 PM 53.6 °F - 31.5 °F 43% 30.03 in 10.0 mi North 9.2 mph - N/A   Scattered Clouds
5:15 PM 52.7 °F - 31.5 °F 44% 30.04 in 10.0 mi NNW 10.4 mph 17.3 mph N/A   Clear
5:35 PM 51.1 °F - 32.0 °F 48% 30.04 in 10.0 mi NNW 8.1 mph - N/A   Clear
5:55 PM 50.5 °F - 32.0 °F 49% 30.04 in 10.0 mi NNW 9.2 mph - N/A   Clear
6:15 PM 49.5 °F - 32.0 °F 51% 30.04 in 10.0 mi North 9.2 mph - N/A   Clear
6:35 PM 48.6 °F - 32.0 °F 53% 30.05 in 10.0 mi NNW 8.1 mph - N/A   Clear
6:55 PM 48.2 °F - 32.0 °F 54% 30.05 in 10.0 mi NNW 8.1 mph - N/A   Clear
7:15 PM 47.3 °F - 32.0 °F 55% 30.06 in 10.0 mi Calm Calm - N/A   Clear
7:35 PM 46.6 °F - 32.2 °F 57% 30.06 in 10.0 mi NNW 3.5 mph - N/A   Clear
7:55 PM 45.9 °F - 32.0 °F 58% 30.07 in 10.0 mi Calm Calm - N/A   Clear
8:15 PM 45.1 °F 43.7 °F 32.4 °F 61% 30.08 in 10.0 mi NW 3.5 mph - N/A   Clear
8:35 PM 44.6 °F 42.2 °F 32.9 °F 64% 30.08 in 10.0 mi NNW 4.6 mph - N/A   Clear
8:55 PM 45.1 °F 41.4 °F 32.2 °F 60% 30.08 in 10.0 mi NW 6.9 mph - N/A   Clear
9:15 PM 44.8 °F 41.6 °F 32.0 °F 61% 30.08 in 10.0 mi WNW 5.8 mph - N/A   Scattered Clouds
9:35 PM 44.6 °F - 32.2 °F 62% 30.08 in 10.0 mi Calm Calm - N/A   Clear
9:55 PM 42.3 °F 37.9 °F 32.5 °F 68% 30.09 in 10.0 mi West 6.9 mph - N/A   Clear
10:15 PM 43.2 °F 39.7 °F 32.4 °F 66% 30.08 in 10.0 mi WNW 5.8 mph - N/A   Clear
10:35 PM 43.5 °F 41.9 °F 32.5 °F 65% 30.09 in 10.0 mi West 3.5 mph - N/A   Clear
10:55 PM 43.2 °F 41.5 °F 32.9 °F 67% 30.09 in 10.0 mi West 3.5 mph - N/A   Clear
11:15 PM 43.9 °F - 32.5 °F 64% 30.09 in 10.0 mi Calm Calm - N/A   Clear
11:35 PM 43.5 °F 40.9 °F 32.5 °F 65% 30.09 in 10.0 mi West 4.6 mph - N/A   Clear
11:55 PM 43.2 °F 40.5 °F 32.5 °F 66% 30.09 in 10.0 mi West 4.6 mph - N/A   Clear